Flag for Germany Weather past 2 weeks in Munich, Bavaria, Germany

Now
66 °F

Sunny.


Feels Like: 66 °F
Forecast: 53 / 67 °F
Wind: 3 mph from North

Location: Oberpfaffenhofen

Current Time: May 29, 2015 at 10:37:37 AM

Latest Report: May 29, 2015 at 10:20 AM


Visibility: 10 mi

Pressure: 29.98 "Hg

Humidity: 49%

Dew point: 46 °F

Location of MunichLocation

Historic Weather in Munich — Graph

°F

Munich temperature yesterday

Maximum temperature yesterday: 68 °F (at 4:50 PM)
Minimum temperature yesterday: 43 °F (at 6:50 AM)
Average temperature yesterday: 60 °F

Past Weeks' High & Low Weather Summary

 TemperatureHumidityPressure
High73 °F (May 18, 5:20 PM)100% (May 15, 6:50 AM)30.30 "Hg (May 15, 6:50 AM)
Low41 °F (May 22, 6:50 AM)28% (May 28, 4:50 PM)29.77 "Hg (May 18, 6:20 PM)
Average54 °F77%30.03 "Hg
* Reported May 14 9:50 AM — May 29 9:20 AM, Munich, Weather by CustomWeather, © 2015

Note: Actual official high and low records may vary slightly from our data, if they occured in-between our weather recording intervals... More about our weather records

Advertising

Munich weather history for previous 24 hours

 ConditionsComfort  
Time TempWeatherWind HumidityBarometerVisibility
9:20 AM
Fri, May 29
63 °FSunny.2 mph59%29.98 "Hg10 mi
8:50 AM61 °FSunny.1 mph63%29.98 "Hg10 mi
8:20 AM61 °FSunny.No wind55%29.98 "Hg10 mi
7:50 AM57 °FSunny.2 mph67%29.98 "Hg10 mi
7:20 AM54 °FSunny.3 mph77%29.98 "Hg10 mi
6:50 AM52 °FSunny.2 mph77%29.98 "Hg10 mi
7:50 PM
Thu, May 28
63 °FSunny.7 mph39%29.98 "Hg10 mi
7:20 PM64 °FSunny.9 mph34%29.98 "Hg10 mi
6:50 PM66 °FSunny.12 mph30%29.98 "Hg10 mi
6:20 PM68 °FPassing clouds.9 mph28%29.98 "HgN/A
5:50 PM68 °FPassing clouds.9 mph28%30.01 "HgN/A
5:20 PM68 °FSunny.13 mph28%30.01 "Hg10 mi
4:50 PM68 °FSunny.12 mph28%30.01 "Hg10 mi
4:20 PM66 °FPassing clouds.14 mph32%30.01 "HgN/A
3:50 PM66 °FPassing clouds.9 mph35%30.04 "HgN/A
3:20 PM66 °FPassing clouds.9 mph40%30.04 "HgN/A
2:50 PM64 °FPassing clouds.12 mph40%30.04 "HgN/A
2:20 PM63 °FPassing clouds.12 mph39%30.04 "HgN/A
1:50 PM63 °FSunny.3 mph45%30.04 "Hg10 mi
1:20 PM63 °FPassing clouds.7 mph49%30.07 "HgN/A
12:50 PM61 °FPassing clouds.9 mph59%30.07 "HgN/A
12:20 PM61 °FPassing clouds.9 mph52%30.07 "HgN/A
11:50 AM59 °FSunny.6 mph59%30.09 "Hg10 mi
11:20 AM59 °FPassing clouds.8 mph55%30.09 "HgN/A
10:50 AM57 °FPassing clouds.10 mph63%30.09 "HgN/A
10:20 AM57 °FPassing clouds.7 mph59%30.09 "HgN/A
Weather by CustomWeather, © 2015

See weather overviewHow to use our weather pages